CAPE
22 23 34 12 14 6 6 68 5 0 0 3 2 0 0 0 0 5 0 0 0 3 4 591 2169 1898 2163 2456 2550 2635 2406 2409 2133 1994 1956 1675 1628 1771 1384 868 991 607 350 970
31 27 18 33 7 6 10 27 6 0 0 20 2 0 0 2 0 1 17 0 0 15 26 432 2687 2709 2507 2298 2418 2716 2236 2635 2284 2122 1845 1708 1597 1007 902 1042 814 1192 2011 1942
65 37 5 10 60 101 85 58 87 23 5 11 21 13 15 11 0 3 27 0 0 79 142 1734 2835 2669 2665 2323 2225 2339 2303 2679 2520 2631 2257 1037 1149 1281 2273 2352 1950 2141 1933 1611
34 24 45 12 81 235 141 60 119 27 15 7 37 7 54 40 0 5 9 1 0 5 733 2346 2812 2630 2895 2781 2633 2509 2265 2165 2258 1744 1270 1039 743 617 2277 2166 1720 1602 1475 1103
53 41 24 8 132 178 129 31 21 89 45 88 65 53 23 49 6 28 28 36 2 23 803 2161 2716 2632 2981 3001 2784 2584 2401 2464 2056 1474 958 1232 738 2247 1899 1750 1462 1131 1087 910
51 85 96 136 143 142 105 0 17 168 114 6 112 68 10 30 62 19 43 4 0 0 59 1657 2817 2544 2769 2890 2752 2629 2404 2542 2043 1505 2335 1479 2257 1840 1598 1484 1203 817 825 670
9 105 79 101 112 67 66 41 12 32 26 0 5 83 36 0 34 0 0 0 0 0 0 1501 2581 2830 2552 2579 2665 2751 2622 2634 2385 1579 2545 2106 3131 1596 1307 957 979 842 572 358
24 2 62 50 37 31 5 0 0 0 0 0 7 26 6 16 62 1 0 0 0 0 1 1418 2517 2650 2563 2476 2709 2691 2565 2481 2406 2213 2810 2799 2553 1592 1321 938 708 585 411 253
0 1 0 47 95 20 10 4 0 0 18 110 39 34 99 20 41 57 0 3 2 0 16 1516 2651 2602 2437 2400 2650 2492 2383 2186 2210 2604 2600 2916 2406 2052 1643 1347 643 558 398 213
0 2 35 127 23 37 46 32 61 66 188 115 58 23 120 107 113 185 2 10 13 18 548 1430 1784 1891 2139 2419 2269 2482 2474 2449 2303 2239 2364 2319 2059 1334 1008 921 929 709 381 213
0 0 44 242 3 18 6 35 0 0 0 94 179 249 516 383 216 99 30 7 24 24 977 1275 898 1559 2323 2756 2619 2375 2315 2429 2217 1796 1623 1415 1285 1127 1045 804 794 466 191 66
3 13 133 161 148 35 36 9 6 0 35 108 180 430 239 197 241 92 48 28 50 48 1206 1271 773 1853 2214 1864 1993 2050 1855 1675 1631 1569 1592 1359 1057 917 880 779 356 119 169 64
2 3 0 45 81 26 26 236 64 0 5 3 28 147 153 190 225 180 41 138 246 277 957 1510 1339 1331 1390 1315 1344 1296 1669 1512 1399 1246 1010 823 657 437 191 172 170 89 279 144
5 14 44 24 15 89 431 75 35 4 1 51 0 0 299 470 538 551 246 480 394 449 807 1342 952 104 855 857 1114 1383 1115 1127 993 842 724 407 324 317 278 219 263 156 109 79
15 29 13 37 183 424 207 59 31 3 8 6 7 23 1 367 1115 1115 860 750 556 470 1152 746 392 12 517 215 695 848 974 872 480 415 323 402 346 231 184 104 170 232 57 27
14 20 11 199 402 155 36 35 0 13 31 0 0 226 342 342 519 467 188 400 753 1140 862 861 469 529 358 412 952 588 427 395 557 650 534 461 256 232 117 62 12 22 10 10
9 22 18 98 323 396 130 353 263 373 99 20 0 100 139 67 16 114 327 556 357 511 459 329 548 637 647 685 472 581 400 475 609 326 303 195 198 202 119 16 7 14 12 3
13 12 1 77 198 146 18 94 573 483 190 31 14 311 97 61 43 61 273 854 353 128 32 67 420 602 602 567 674 789 544 401 417 446 374 201 59 25 13 6 7 4 0 0
9 11 9 153 45 9 0 137 359 369 345 203 461 418 153 158 280 55 126 856 499 227 94 244 566 585 565 581 666 417 201 99 42 30 21 3 0 2 0 0 0 0 0 0
6 1 6 7 53 0 41 78 34 208 363 76 140 405 684 546 805 130 47 91 694 657 564 599 600 424 497 347 164 92 68 56 44 0 0 0 0 0 0 0 0 0 12 13
1 18 8 22 95 79 5 40 364 315 94 33 119 409 407 351 145 76 171 256 83 253 459 640 817 557 384 242 145 135 114 59 0 0 0 0 0 0 0 0 0 0 2 0
0 31 26 54 0 0 12 0 6 0 18 41 139 437 246 148 103 112 200 192 321 585 620 772 686 994 346 126 135 179 25 0 0 0 0 0 0 0 0 0 0 0 0 0
39 4 8 2 38 2 0 0 17 5 0 25 316 556 87 72 85 53 299 280 281 775 109 259 202 433 445 161 149 21 12 0 0 0 0 0 0 0 0 0 0 0 0 0
0 46 50 45 16 30 2 3 2 0 1 324 315 310 107 29 19 39 218 323 298 513 362 413 379 347 199 40 24 20 0 0 0 0 0 0 0 0 8 0 0 0 0 0
0 0 30 47 7 17 14 0 4 0 1 467 225 153 75 34 12 110 159 440 480 554 418 409 393 366 293 84 46 8 0 0 2 3 15 11 11 4 2 1 0 0 0 0
21 20 23 37 47 23 47 37 0 0 0 316 286 62 23 35 29 17 204 265 176 320 310 271 238 241 125 55 7 7 0 0 0 0 0 0 0 0 0 0 0 0 0 0
CIN
-1 0 0 0 -1 0 0 -4 -3 0 0 -4 -2 0 0 0 0 -1 0 0 0 -8 -7 -20 -33 -9 -34 -13 -23 -24 -25 -21 -12 -8 -13 -23 -15 -9 -24 -88 -115 -202 -220 -83
0 -70 -2 -5 -7 -1 -1 0 -1 0 0 -8 -1 0 0 0 0 -4 -1 0 0 -15 -59 -8 -13 -42 -41 -28 -22 -20 -34 -18 -15 -22 -40 -59 -59 -120 -122 -118 -156 -149 -23 -24
-34 -1 -21 -11 -7 -1 -6 -2 -1 0 -3 -6 -1 -1 -2 -1 0 -1 0 0 0 -14 -16 -4 -6 -37 -36 -16 -33 -30 -18 -12 -16 -16 -43 -246 -216 -132 -30 -52 -63 -43 -24 -21
-11 -1 -1 -14 -10 0 0 -2 -1 -1 -3 -8 -7 0 0 0 0 -7 -3 -6 0 -11 -6 -2 -4 -32 -16 -1 -4 -12 -17 -27 -19 -79 -90 -150 -204 -207 -15 -35 -76 -52 -7 -45
-92 -32 -4 0 -1 0 -2 -52 -8 -1 -10 -1 -35 -1 -3 -2 -1 -3 -5 -2 -3 -4 -3 -2 -4 -20 -6 -2 -2 -12 -20 -17 -36 -111 -171 -101 -156 -31 -54 -53 -87 -78 -37 -19
-25 -7 -1 -6 -1 -3 -2 0 -18 -24 0 -6 -40 -2 -2 0 0 -1 -1 -5 0 0 -5 -2 -5 -13 -7 0 -1 -5 -20 -14 -28 -68 -12 -58 -23 -58 -77 -62 -94 -68 -46 -26
-46 -3 -19 -48 -1 -1 0 -4 0 0 -5 0 -29 -3 -31 0 0 0 0 0 0 0 0 -1 -2 -2 -17 -3 0 -1 -5 -9 -8 -49 -8 -22 -12 -58 -74 -78 -33 -42 -75 -64
-21 -50 -13 -1 -3 -1 -1 0 0 0 0 0 -34 -2 -1 -4 -1 -6 0 0 0 0 0 -1 0 -5 -18 -7 -5 -11 -14 -10 -7 -5 -3 -10 -20 -48 -88 -58 -44 -98 -25 -18
0 0 0 -7 -2 -2 -14 -8 -6 -1 -1 -1 -1 -8 -3 -17 -8 -7 0 -14 -34 0 -7 -2 -2 -6 -9 -10 -26 -41 -16 -25 -15 -3 -6 -6 -13 -14 -27 -16 -102 -44 -16 -36
0 0 -85 -8 -7 -6 -54 -28 -2 -2 0 -11 -5 -26 -2 -8 -3 0 -20 -19 -28 -23 -7 -2 -5 -3 -3 -5 -34 -19 -12 -22 -26 -13 -6 -11 -12 -48 -75 -60 -20 -19 -53 -62
0 0 -64 -12 -4 -3 -24 -8 0 0 -12 -4 -1 -2 -51 -161 -5 -7 -8 -32 -11 -18 -1 -1 -23 -18 -12 -33 -20 -25 -17 -7 -9 -3 -20 -68 -72 -77 -35 -40 -15 -54 -79 -126
-1 0 -2 -23 -2 -1 -2 -14 -8 0 0 0 -5 -13 -256 -118 -15 -7 -1 -18 -7 -39 -2 -7 -58 -38 -71 -12 -12 -8 -13 -4 -5 -34 -46 -50 -72 -49 -37 -35 -80 -93 -72 -119
-1 0 0 -98 -6 -11 -2 -8 -52 0 -4 -4 -9 -76 -273 -106 -71 0 -3 0 -1 -3 -3 -3 -56 -33 -46 -38 -4 0 -3 -26 -46 -46 -61 -80 -92 -112 -138 -131 -106 -131 -41 -44
-1 -1 -1 -11 -31 -73 -11 -2 -48 -25 -1 -4 0 0 -111 -28 -14 -12 -5 -5 -3 -17 -5 -73 -95 -4 -17 -1 -38 -44 -66 -78 -79 -87 -102 -161 -156 -139 -119 -106 -70 -79 -80 -65
-4 0 0 -37 -27 -39 -11 -1 -24 -14 -8 -2 -5 -17 -39 -22 -15 -47 -169 -199 -3 -13 -54 -27 -26 -76 -10 -22 -39 -85 -87 -84 -148 -187 -166 -149 -143 -137 -131 -138 -82 -51 -103 -107
-1 0 0 -53 0 -1 0 -5 0 -4 -11 0 0 -3 -17 -80 -23 -25 -125 -128 -126 -110 -48 -18 -5 -52 -16 -113 -11 -50 -65 -195 -146 -107 -121 -118 -127 -117 -149 -167 -238 -158 -87 0
-1 0 0 -70 -2 -58 -2 -81 -21 -6 -52 -34 0 -4 -110 -272 -35 -17 -44 -109 -108 -18 -41 -37 -30 -46 -68 -95 -89 -133 -187 -149 -99 -158 -161 -156 -131 -109 -127 -144 0 0 -1 -11
0 0 -1 -66 -10 -3 -22 -47 -4 -7 -52 -18 -7 -39 -77 -165 -214 -85 -121 -10 -64 -62 -15 -7 -49 -72 -79 -111 -110 -93 -121 -135 -120 -103 -94 -120 -146 -170 -41 0 0 -1 0 0
0 0 -30 -1 -7 -8 0 -43 -6 -2 0 -8 -2 -13 -38 -108 -86 -129 -34 -8 -23 -86 -79 -84 -35 -57 -74 -82 -79 -107 -154 -182 -96 -77 -88 -52 0 0 0 0 0 0 0 0
0 0 0 0 -1 -1 -1 -29 -108 -15 -1 -55 -79 -13 -3 -13 -2 -92 -124 -55 -1 -18 -33 -51 -66 -115 -87 -90 -85 -84 -72 -77 -83 0 0 0 0 0 0 0 0 0 -1 0
0 -2 0 -1 0 -3 -2 -66 -39 -2 -27 -99 -71 -41 -39 -40 -103 -162 -95 -51 -45 -23 -18 -14 -4 -33 -52 -73 -71 -62 -59 -74 0 0 0 0 0 0 0 0 0 0 -1 0
0 0 0 -1 -1 -1 -13 0 -7 0 -11 -77 -53 -19 -59 -104 -136 -145 -89 -83 -35 -3 -3 0 -8 -1 -51 -53 -40 -35 -100 0 0 0 0 0 0 0 0 0 0 0 0 0
0 0 0 0 0 0 0 -1 -9 -2 0 -117 -28 -8 -103 -59 -108 -157 -54 -46 -47 -2 -80 -25 -37 -2 -9 -30 -29 -93 -89 0 0 0 0 0 0 0 0 0 0 0 0 0
0 -2 0 0 -3 -1 -1 0 0 -8 -16 -40 -32 -32 -93 -80 -84 -120 -50 -25 -32 -10 -23 -5 -2 0 -8 -53 -85 -98 0 0 0 0 0 0 0 -2 -2 0 0 0 0 0
0 0 0 -4 -11 -1 -16 0 0 -28 0 -8 -26 -50 -81 -51 -64 -52 -33 -2 -1 0 -4 -1 0 0 -1 -19 -39 -69 0 0 0 0 -42 0 0 0 0 -1 0 0 0 0
0 0 0 0 -1 -1 -2 0 0 0 0 -3 -9 -67 -25 -54 -75 -56 -2 0 -4 0 0 0 0 0 0 -15 0 -54 0 -1 0 0 0 0 0 0 -3 0 0 0 0 0
Wind_Speed
nan nan nan nan nan nan nan nan nan nan nan nan nan nan nan nan nan nan nan nan nan nan nan 49 55 55 48 47 43 43 37 29 23 32 31 38 27 36 35 32 31 30 25 28
nan nan nan nan nan nan nan nan nan nan nan nan nan nan nan nan nan nan nan nan nan nan nan 51 69 41 38 42 41 43 37 29 25 26 26 36 40 40 34 37 41 32 40 22
nan nan nan nan nan 22 nan nan nan nan nan nan nan nan nan nan nan nan nan nan nan nan 47 53 60 51 40 40 37 40 37 33 30 33 34 36 40 40 42 27 32 16 23 30
nan nan nan nan nan 7 5 nan 13 nan nan nan nan nan nan nan nan nan nan nan nan nan 47 51 51 51 39 41 37 38 38 37 34 36 36 30 24 13 13 25 25 26 16 24
nan nan nan nan 16 10 13 nan nan nan nan nan nan nan nan nan nan nan nan nan nan nan 45 48 44 49 37 40 38 38 38 38 36 36 35 31 27 23 20 25 37 24 23 25
nan nan nan 18 17 12 29 nan nan 17 34 nan 24 nan nan nan nan nan nan nan nan nan nan 42 41 45 37 39 39 37 37 37 34 36 37 32 28 25 28 30 32 23 22 25
nan 16 nan 21 23 nan nan nan nan nan nan nan nan nan nan nan nan nan nan nan nan nan nan 40 42 40 40 37 39 38 36 36 36 35 28 30 30 33 32 39 32 21 26 31
nan nan nan nan nan nan nan nan nan nan nan nan nan nan nan nan nan nan nan nan nan nan nan 38 38 41 41 38 40 40 37 36 34 32 29 26 34 34 34 35 25 23 32 32
nan nan nan nan nan nan nan nan nan nan nan 6 nan nan nan nan nan nan nan nan nan nan nan 37 39 41 40 36 43 44 37 35 31 32 39 43 38 39 42 28 29 34 38 37
nan nan nan 27 nan nan nan nan nan nan 8 21 nan nan 11 7 14 11 nan nan nan nan 31 36 27 38 45 51 48 44 40 38 35 37 40 42 32 40 41 35 37 39 41 44
nan nan nan 30 nan nan nan nan nan nan nan nan 16 12 45 29 15 nan nan nan nan nan 28 32 33 36 52 42 41 41 38 35 40 45 44 43 44 45 44 42 41 43 45 nan
nan nan 10 27 22 nan nan nan nan nan nan 36 30 24 33 43 20 nan nan nan nan nan 36 33 29 44 56 43 31 48 47 47 46 47 46 48 49 45 44 44 44 45 48 nan
nan nan nan nan nan nan nan 24 nan nan nan nan nan 31 48 54 51 18 nan 13 24 23 30 26 47 43 43 63 60 53 52 47 43 47 49 47 44 45 45 45 46 nan 48 49
nan nan nan nan nan nan 17 nan nan nan nan nan nan nan 47 50 33 37 26 26 32 28 29 72 63 65 67 57 57 51 45 41 39 43 46 45 43 45 44 44 46 48 49 nan
nan nan nan nan 28 33 25 nan nan nan nan nan nan nan nan 59 72 65 76 68 32 31 78 37 57 nan 37 48 61 44 41 43 45 47 48 47 45 45 45 46 46 49 nan nan
nan nan nan 19 18 16 nan nan nan nan nan nan nan 7 38 50 47 63 65 61 58 71 61 58 44 51 49 59 37 35 43 46 47 48 48 45 44 45 46 nan nan nan nan nan
nan nan nan nan 28 35 10 26 11 23 nan nan nan 21 33 nan nan 52 43 55 61 58 69 69 65 45 47 36 36 41 44 43 46 47 45 43 44 44 45 nan nan nan nan nan
nan nan nan nan 19 14 nan nan 40 41 38 nan nan 27 nan nan nan nan 57 52 48 52 nan nan 51 42 40 40 42 42 43 44 45 45 45 42 nan nan nan nan nan nan nan nan
nan nan nan 5 nan nan nan 28 32 30 35 35 16 21 17 15 24 nan 52 52 50 46 nan 34 33 41 40 40 42 45 44 nan nan nan nan nan nan nan nan nan nan nan nan nan
nan nan nan nan nan nan nan nan nan 15 18 nan 16 13 28 16 26 29 nan nan 47 39 33 34 37 41 45 45 46 nan nan nan nan nan nan nan nan nan nan nan nan nan nan nan
nan nan nan nan nan nan nan nan 31 20 nan nan 24 22 30 19 26 nan 29 38 nan 37 34 34 35 38 40 40 42 42 39 nan nan nan nan nan nan nan nan nan nan nan nan nan
nan nan nan nan nan nan nan nan nan nan nan nan 23 20 25 20 21 22 28 33 33 35 35 33 36 37 38 40 39 39 nan nan nan nan nan nan nan nan nan nan nan nan nan nan
nan nan nan nan nan nan nan nan nan nan nan nan 23 23 nan nan nan nan 23 28 26 27 29 30 32 34 34 34 33 nan nan nan nan nan nan nan nan nan nan nan nan nan nan nan
nan nan nan nan nan nan nan nan nan nan nan 24 17 16 24 nan nan nan 22 23 27 27 27 29 33 37 35 nan nan nan nan nan nan nan nan nan nan nan nan nan nan nan nan nan
nan nan nan nan nan nan nan nan nan nan nan 26 23 29 nan nan nan 26 27 26 25 24 25 29 29 30 30 nan nan nan nan nan nan nan nan nan nan nan nan nan nan nan nan nan
nan nan nan nan nan nan nan nan nan nan nan 27 26 nan nan nan nan nan 30 28 29 29 27 29 30 30 31 nan nan nan nan nan nan nan nan nan nan nan nan nan nan nan nan nan
Wind_Direction
nan nan nan nan nan nan nan nan nan nan nan nan nan nan nan nan nan nan nan nan nan nan nan 229 243 224 232 236 240 250 251 261 263 270 271 286 247 254 247 249 251 253 253 249
nan nan nan nan nan nan nan nan nan nan nan nan nan nan nan nan nan nan nan nan nan nan nan 221 234 254 242 241 239 244 250 245 255 250 261 252 251 249 249 251 254 275 260 282
nan nan nan nan nan 328 nan nan nan nan nan nan nan nan nan nan nan nan nan nan nan nan 233 231 235 246 241 247 245 245 245 245 246 248 254 274 257 246 249 261 246 263 261 278
nan nan nan nan nan 355 69 nan 58 nan nan nan nan nan nan nan nan nan nan nan nan nan 239 233 235 242 237 241 242 247 247 250 250 259 265 288 306 289 263 256 254 229 293 278
nan nan nan nan 356 7 107 nan nan nan nan nan nan nan nan nan nan nan nan nan nan nan 236 234 235 243 236 237 241 246 252 256 259 268 275 284 280 251 244 258 266 273 287 284
nan nan nan 14 45 3 273 nan nan 163 182 nan 169 nan nan nan nan nan nan nan nan nan nan 236 234 244 238 237 241 246 252 256 264 271 274 275 265 268 261 263 273 281 279 288
nan 56 nan 6 57 nan nan nan nan nan nan nan nan nan nan nan nan nan nan nan nan nan nan 230 231 242 241 242 245 246 253 259 262 267 268 274 272 265 262 271 280 271 273 283
nan nan nan nan nan nan nan nan nan nan nan nan nan nan nan nan nan nan nan nan nan nan nan 231 228 232 238 239 246 249 251 256 261 265 269 258 257 258 269 275 288 276 275 282
nan nan nan nan nan nan nan nan nan nan nan 193 nan nan nan nan nan nan nan nan nan nan nan 228 230 232 240 238 245 247 249 256 264 264 255 259 250 271 259 280 265 272 280 290
nan nan nan 76 nan nan nan nan nan nan 141 151 nan nan 166 210 182 211 nan nan nan nan 222 225 215 233 241 238 239 248 248 253 255 259 258 263 270 269 274 274 270 272 278 285
nan nan nan 120 nan nan nan nan nan nan nan nan 170 179 167 178 252 nan nan nan nan nan 227 222 202 243 220 232 240 240 249 250 246 252 255 266 264 269 271 271 272 276 282 nan
nan nan 72 123 88 nan nan nan nan nan nan 166 157 192 183 154 139 nan nan nan nan nan 218 228 210 229 260 258 228 236 242 241 240 248 256 257 263 269 271 272 275 279 285 nan
nan nan nan nan nan nan nan 308 nan nan nan nan nan 177 190 154 147 164 nan 167 205 198 200 233 234 219 231 235 233 230 230 241 244 249 255 259 263 266 267 268 275 nan 285 290
nan nan nan nan nan nan 121 nan nan nan nan nan nan nan 196 125 159 160 195 205 202 179 208 223 219 213 209 223 228 229 231 235 243 251 252 256 260 262 263 268 275 282 290 nan
nan nan nan nan 113 81 65 nan nan nan nan nan nan nan nan 159 173 179 187 172 217 180 226 231 228 nan 207 222 205 215 233 238 242 246 251 256 257 258 264 269 278 285 nan nan
nan nan nan 114 117 148 nan nan nan nan nan nan nan 48 171 169 187 188 196 185 196 203 221 232 235 244 224 232 247 231 235 237 243 248 253 256 256 258 266 nan nan nan nan nan
nan nan nan nan 167 145 151 179 132 274 nan nan nan 153 166 nan nan 197 194 174 201 201 202 215 238 238 241 234 236 234 238 244 249 252 252 254 257 265 272 nan nan nan nan nan
nan nan nan nan 172 176 nan nan 175 248 252 nan nan 171 nan nan nan nan 204 203 203 206 nan nan 213 227 232 233 235 239 241 244 248 249 252 259 nan nan nan nan nan nan nan nan
nan nan nan 315 nan nan nan 186 176 200 247 234 241 179 184 183 193 nan 199 205 212 218 nan 218 214 221 235 238 239 243 245 nan nan nan nan nan nan nan nan nan nan nan nan nan
nan nan nan nan nan nan nan nan nan 174 257 nan 208 177 163 195 172 195 nan nan 213 215 223 225 224 228 229 233 239 nan nan nan nan nan nan nan nan nan nan nan nan nan nan nan
nan nan nan nan nan nan nan nan 176 218 nan nan 181 166 197 206 201 nan 214 217 nan 214 216 222 225 225 231 234 236 240 245 nan nan nan nan nan nan nan nan nan nan nan nan nan
nan nan nan nan nan nan nan nan nan nan nan nan 176 180 228 232 226 209 220 225 224 222 222 228 228 228 232 237 241 246 nan nan nan nan nan nan nan nan nan nan nan nan nan nan
nan nan nan nan nan nan nan nan nan nan nan nan 182 192 nan nan nan nan 225 218 213 217 220 225 237 240 240 245 248 nan nan nan nan nan nan nan nan nan nan nan nan nan nan nan
nan nan nan nan nan nan nan nan nan nan nan 188 197 210 251 nan nan nan 227 226 219 221 223 228 234 236 238 nan nan nan nan nan nan nan nan nan nan nan nan nan nan nan nan nan
nan nan nan nan nan nan nan nan nan nan nan 217 208 251 nan nan nan 247 238 224 227 229 227 235 241 249 252 nan nan nan nan nan nan nan nan nan nan nan nan nan nan nan nan nan
nan nan nan nan nan nan nan nan nan nan nan 225 226 nan nan nan nan nan 244 239 231 231 234 233 240 246 249 nan nan nan nan nan nan nan nan nan nan nan nan nan nan nan nan nan